Location: ??
(35.4032°N, 139.3073°E)
Time: 11:01:39
(UTC+00:00)

ISS - Visible Passes

Search period start: 23 June 2024 00:00
Search period end: 03 July 2024 00:00
Orbit: 410 x 425 km, 51.6° (Epoch: 23 June)

Date Brightness Start Highest point End Pass type
(mag) Time Alt. Az. Time Alt. Az. Time Alt. Az.
23 Jun -3.0 17:17:32 43° ESE 17:17:32 43° ESE 17:20:20 10° ENE visible
23 Jun -1.6 18:51:39 10° WNW 18:54:04 18° NNW 18:56:29 10° NNE visible
24 Jun -1.0 16:31:14 14° E 16:31:14 14° E 16:31:54 10° ENE visible
24 Jun -2.3 18:04:08 18° W 18:05:49 28° NW 18:08:46 10° NNE visible
25 Jun -3.1 17:17:45 48° NNW 17:17:45 48° NNW 17:20:52 10° NE visible
26 Jun -1.5 16:31:17 24° NE 16:31:17 24° NE 16:32:47 10° NE visible
26 Jun -1.1 18:04:56 10° WNW 18:06:37 13° NNW 18:08:18 10° N visible
27 Jun -1.6 17:17:38 18° NW 17:18:13 19° NNW 17:20:42 10° NNE visible
28 Jun -1.4 16:31:01 23° N 16:31:01 23° N 16:32:50 10° NNE visible
29 Jun -0.5 15:44:19 13° NE 15:44:19 13° NE 15:44:47 10° NE visible
30 Jun -0.9 16:30:26 14° NNW 16:30:26 14° NNW 16:32:09 10° N visible
01 Jul -0.5 15:43:34 14° N 15:43:34 14° N 15:44:23 10° NNE visible
